TimeEDT,TemperatureF,Dew PointF,Humidity,Sea Level PressureIn,VisibilityMPH,Wind Direction,Wind SpeedMPH,Gust SpeedMPH,PrecipitationIn,Events,Conditions,WindDirDegrees,DateUTC
12:15 AM,54.5,51.8,91,30.07,10.0,Calm,Calm,-,N/A,,Overcast,0,2013-04-30 04:15:00
12:35 AM,54.0,51.6,92,30.07,10.0,Calm,Calm,-,N/A,,Overcast,0,2013-04-30 04:35:00
12:55 AM,54.1,51.6,91,30.07,10.0,Calm,Calm,-,N/A,,Overcast,0,2013-04-30 04:55:00
1:15 AM,54.5,51.8,91,30.07,10.0,Calm,Calm,-,N/A,,Overcast,0,2013-04-30 05:15:00
1:35 AM,54.5,51.8,91,30.07,10.0,Calm,Calm,-,N/A,,Overcast,0,2013-04-30 05:35:00
1:55 AM,54.1,51.4,91,30.06,10.0,Calm,Calm,-,N/A,,Overcast,0,2013-04-30 05:55:00
2:15 AM,54.0,51.4,91,30.06,10.0,Calm,Calm,-,N/A,,Overcast,0,2013-04-30 06:15:00
2:35 AM,53.8,51.4,92,30.05,10.0,Calm,Calm,-,N/A,,Overcast,0,2013-04-30 06:35:00
2:55 AM,54.0,51.4,91,30.05,10.0,Calm,Calm,-,N/A,,Overcast,0,2013-04-30 06:55:00
3:15 AM,53.6,51.3,92,30.05,7.0,Calm,Calm,-,N/A,,Overcast,0,2013-04-30 07:15:00
3:35 AM,53.2,51.1,92,30.05,7.0,Calm,Calm,-,N/A,,Overcast,0,2013-04-30 07:35:00
3:55 AM,53.6,51.3,92,30.06,7.0,Calm,Calm,-,N/A,,Overcast,0,2013-04-30 07:55:00
4:15 AM,53.2,51.1,92,30.07,7.0,Calm,Calm,-,N/A,,Overcast,0,2013-04-30 08:15:00
4:35 AM,53.2,51.3,93,30.07,7.0,Calm,Calm,-,N/A,,Overcast,0,2013-04-30 08:35:00
4:55 AM,52.9,50.9,93,30.07,5.0,Calm,Calm,-,N/A,,Overcast,0,2013-04-30 08:55:00
5:15 AM,53.1,51.1,93,30.08,5.0,Calm,Calm,-,N/A,,Overcast,0,2013-04-30 09:15:00
5:35 AM,53.1,51.1,93,30.08,5.0,Calm,Calm,-,N/A,,Overcast,0,2013-04-30 09:35:00
5:55 AM,53.1,51.1,93,30.09,5.0,Calm,Calm,-,N/A,,Overcast,0,2013-04-30 09:55:00
6:15 AM,53.1,51.1,93,30.09,4.0,Calm,Calm,-,N/A,,Overcast,0,2013-04-30 10:15:00
6:35 AM,53.1,51.1,93,30.10,3.0,Calm,Calm,-,N/A,,Overcast,0,2013-04-30 10:35:00
6:55 AM,52.9,51.1,94,30.10,1.5,Calm,Calm,-,N/A,,Overcast,0,2013-04-30 10:55:00
7:15 AM,52.9,51.1,94,30.11,0.2,Calm,Calm,-,N/A,Fog,Fog,0,2013-04-30 11:15:00
7:35 AM,53.1,51.3,94,30.12,0.2,Calm,Calm,-,N/A,Fog,Fog,0,2013-04-30 11:35:00
7:55 AM,53.2,51.6,94,30.13,0.2,Calm,Calm,-,N/A,Fog,Fog,0,2013-04-30 11:55:00
8:15 AM,53.4,51.8,94,30.14,0.2,Calm,Calm,-,N/A,Fog,Fog,0,2013-04-30 12:15:00
8:35 AM,53.6,51.8,94,30.14,0.2,Calm,Calm,-,N/A,Fog,Fog,0,2013-04-30 12:35:00
8:55 AM,54.0,52.3,94,30.14,1.0,Calm,Calm,-,N/A,,Overcast,0,2013-04-30 12:55:00
9:15 AM,54.1,52.5,94,30.15,4.0,SE,4.6,-,N/A,,Overcast,130,2013-04-30 13:15:00
9:35 AM,54.0,52.2,94,30.16,5.0,Calm,Calm,-,N/A,,Overcast,0,2013-04-30 13:35:00
9:55 AM,54.5,52.7,94,30.16,7.0,SE,3.5,-,N/A,,Overcast,130,2013-04-30 13:55:00
10:15 AM,55.2,52.3,90,30.16,10.0,ESE,4.6,-,N/A,,Overcast,110,2013-04-30 14:15:00
10:35 AM,56.3,53.2,89,30.16,10.0,Calm,Calm,-,N/A,,Overcast,0,2013-04-30 14:35:00
10:55 AM,57.7,53.2,85,30.15,10.0,Calm,Calm,-,N/A,,Mostly Cloudy,0,2013-04-30 14:55:00
11:15 AM,58.8,52.3,79,30.16,10.0,Calm,Calm,-,N/A,,Overcast,0,2013-04-30 15:15:00
11:35 AM,60.1,52.7,77,30.16,10.0,SSE,3.5,-,N/A,,Overcast,160,2013-04-30 15:35:00
11:55 AM,61.7,50.0,65,30.16,10.0,South,3.5,-,N/A,,Overcast,190,2013-04-30 15:55:00
12:15 PM,60.8,49.6,67,30.16,10.0,South,3.5,-,N/A,,Overcast,180,2013-04-30 16:15:00
12:35 PM,61.5,49.6,65,30.15,10.0,Calm,Calm,-,N/A,,Overcast,0,2013-04-30 16:35:00
12:55 PM,64.4,50.9,62,30.14,10.0,SE,4.6,-,N/A,,Mostly Cloudy,130,2013-04-30 16:55:00
1:15 PM,65.3,50.9,60,30.14,10.0,ESE,6.9,-,N/A,,Scattered Clouds,120,2013-04-30 17:15:00
1:35 PM,62.1,49.1,62,30.14,10.0,SE,4.6,-,N/A,,Mostly Cloudy,130,2013-04-30 17:35:00
1:55 PM,62.1,48.6,61,30.14,10.0,Calm,Calm,-,N/A,,Overcast,0,2013-04-30 17:55:00
2:15 PM,62.8,50.2,63,30.14,10.0,SSE,3.5,-,N/A,,Overcast,150,2013-04-30 18:15:00
2:35 PM,64.0,51.1,63,30.13,10.0,SSE,5.8,-,N/A,,Mostly Cloudy,160,2013-04-30 18:35:00
2:55 PM,66.7,52.2,59,30.13,10.0,SE,8.1,-,N/A,,Scattered Clouds,130,2013-04-30 18:55:00
3:15 PM,66.2,49.6,55,30.13,10.0,SSE,5.8,-,N/A,,Clear,150,2013-04-30 19:15:00
3:35 PM,66.4,50.4,56,30.12,10.0,SE,4.6,-,N/A,,Scattered Clouds,140,2013-04-30 19:35:00
3:55 PM,66.2,49.6,55,30.12,10.0,SE,8.1,-,N/A,,Scattered Clouds,140,2013-04-30 19:55:00
4:15 PM,66.0,49.1,54,30.11,10.0,SE,4.6,-,N/A,,Scattered Clouds,140,2013-04-30 20:15:00
4:35 PM,66.2,50.4,57,30.12,10.0,Calm,Calm,-,N/A,,Mostly Cloudy,0,2013-04-30 20:35:00
4:55 PM,66.2,48.7,53,30.12,10.0,SE,3.5,-,N/A,,Mostly Cloudy,140,2013-04-30 20:55:00
5:15 PM,63.5,50.2,62,30.13,10.0,ESE,8.1,-,N/A,,Overcast,120,2013-04-30 21:15:00
5:35 PM,63.0,49.6,62,30.13,10.0,SE,4.6,-,N/A,,Overcast,130,2013-04-30 21:35:00
5:55 PM,63.0,49.8,62,30.14,10.0,SE,8.1,-,N/A,,Overcast,140,2013-04-30 21:55:00
6:15 PM,63.0,50.7,64,30.15,10.0,SE,3.5,-,N/A,,Overcast,130,2013-04-30 22:15:00
6:35 PM,62.8,50.4,64,30.16,10.0,SSE,5.8,-,N/A,,Overcast,160,2013-04-30 22:35:00
6:55 PM,62.4,51.3,67,30.17,10.0,SE,5.8,-,N/A,,Overcast,140,2013-04-30 22:55:00
7:15 PM,60.4,51.6,73,30.17,10.0,ESE,6.9,-,N/A,,Overcast,120,2013-04-30 23:15:00
7:35 PM,59.7,51.4,74,30.18,10.0,SE,10.4,17.3,N/A,,Overcast,140,2013-04-30 23:35:00
7:55 PM,59.0,51.6,76,30.19,10.0,SE,5.8,-,N/A,,Overcast,130,2013-04-30 23:55:00
8:15 PM,58.6,51.8,78,30.19,10.0,SE,4.6,-,N/A,,Overcast,130,2013-05-01 00:15:00
8:35 PM,58.1,51.6,79,30.20,10.0,SE,4.6,-,N/A,,Overcast,130,2013-05-01 00:35:00
8:55 PM,57.2,51.8,82,30.20,10.0,SSE,3.5,-,N/A,,Overcast,150,2013-05-01 00:55:00
9:15 PM,56.8,51.4,82,30.21,10.0,ESE,5.8,-,N/A,,Overcast,120,2013-05-01 01:15:00
9:35 PM,56.5,51.3,83,30.22,10.0,ESE,5.8,-,N/A,,Overcast,120,2013-05-01 01:35:00
9:55 PM,56.3,51.1,83,30.22,10.0,SE,5.8,-,N/A,,Overcast,130,2013-05-01 01:55:00
10:15 PM,55.9,51.3,84,30.23,10.0,SE,3.5,-,N/A,,Overcast,130,2013-05-01 02:15:00
10:35 PM,55.6,50.5,83,30.24,10.0,SE,3.5,-,N/A,,Overcast,130,2013-05-01 02:35:00
10:55 PM,55.4,50.2,83,30.24,10.0,SE,3.5,-,N/A,,Overcast,130,2013-05-01 02:55:00
11:15 PM,55.2,50.2,83,30.24,10.0,Calm,Calm,-,N/A,,Overcast,0,2013-05-01 03:15:00
11:35 PM,54.7,50.0,84,30.24,10.0,ESE,6.9,-,N/A,,Overcast,120,2013-05-01 03:35:00
11:55 PM,54.5,49.5,83,30.24,10.0,SE,3.5,-,N/A,,Overcast,130,2013-05-01 03:55:00